Regional Weather Roundup
Issued by NWS Jackson, KY

Home | Current Version | Previous Version | Text Only | Print | Product List | Glossary Off
Versions: 1 2 3 4 5 6 7 8 9 10 11 12 13 14 15 16 17 18 19 20 21 22 23 24 25 26

000
ASUS43 KJKL 261710
RWRJKL

EAST KENTUCKY HOURLY WEATHER ROUNDUP
NATIONAL WEATHER SERVICE JACKSON KY
100 PM EDT THU MAY 26 2016

NOTE: "FAIR" INDICATES FEW OR NO CLOUDS BELOW 12,000 FEET WITH
NO SIGNIFICANT WEATHER AND/OR OBSTRUCTIONS TO VISIBILITY.

* THESE REPORTS ARE NOT UNDER NWS QUALITY CONTROL AND MAY NOT
  REPORT WEATHER SUCH AS PRECIPITATION AND FOG.

KYZ079-080-083-085-087-088-110-112-115-119-120-261800
...EASTERN KENTUCKY...

CITY           SKY/WX    TMP DP  RH WIND       PRES   REMARKS
JACKSON        CLOUDY    69  63  81 VRB6      30.17F
LONDON         LGT RAIN  68  64  87 S10       30.18F
SOMERSET*      TSTM      66  66 100 CALM      30.18F
MONTICELLO*    CLOUDY    72  69  90 E5        30.18S
WILLIAMSBURG*  CLOUDY    63  63 100 E6        30.20F
MIDDLESBORO*   CLOUDY    71  65  84 S3        30.23S
HARLAN APT*    CLOUDY    64  63  94 CALM      30.24S VSB 1
HAZARD APT*    MOSUNNY   68  68 100 S3        30.18F
BLACK MTN*       N/A     61  59  94 CALM        N/A
PIKE CO APT*   LGT RAIN  65  65 100 S3        30.20F
BIG SANDY APT* LGT RAIN  68  66  94 S6        30.18F
MOREHEAD APT*  CLOUDY    75  64  69 SW9G16    30.15F
ASHLAND*       CLOUDY    75  66  73 SW7       30.11S THUNDER
$$

KYZ035-036-041-042-044-050-067-078-099-261800
...CENTRAL KENTUCKY...

CITY           SKY/WX    TMP DP  RH WIND       PRES   REMARKS
MT STERLING*   PTSUNNY   73  66  78 SW9G20    30.15S
FLEMING/MASON* CLOUDY   N/A N/A N/A SW14G21   30.12F
DANVILLE*      CLOUDY    73  64  73 S17G24    30.14F
RICHMOND*      CLOUDY    68  63  83 S9        30.14F
LEXINGTON      SUNNY     77  66  68 S14       30.12F
FRANKFORT      PTSUNNY   79  65  62 S13       30.09F
LOUISVILLE     CLOUDY    80  66  62 S14       30.05F
LEBANON*         N/A     77  68  73 S13       30.11F
GLASGOW*       MOSUNNY   81  68  65 SW12      30.10F
BOWLING GREEN  PTSUNNY   83  71  67 S15       30.07F
$$

KYZ091>093-OHZ055-061-077-WVZ005-015-034-035-042-261800
...SOUTHERN OHIO/WEST VIRGINIA...

CITY           SKY/WX    TMP DP  RH WIND       PRES   REMARKS
COVINGTON      PTSUNNY   76  66  71 S13       30.07F
COLUMBUS       PTSUNNY   78  64  61 SW14      30.05S
DAYTON         CLOUDY    75  65  70 SW14      30.06F
WILMINGTON     CLOUDY    77  64  64 SW12G22   30.07S
HUNTINGTON     PTSUNNY   73  64  73 S10       30.14S
CHARLESTON     PTSUNNY   76  63  64 SW10G18   30.14S
PINEVILLE*     CLOUDY    75  58  55 MISG      30.24S
BECKLEY        CLOUDY    72  57  59 W8        30.21F
BLUEFIELD      PTSUNNY   72  57  59 W10       30.24S
LOGAN CO APT*    N/A     66  64  94 SW6       30.20S FOG
$$

VAZ002-007-008-TNZ017-027-036-066-071-261800
...SOUTHWEST VIRGINIA/EAST TENNESSEE...

CITY           SKY/WX    TMP DP  RH WIND       PRES   REMARKS
WISE*          CLOUDY    68  55  64 SW10      30.27F
JONESVILLE*    LGT RAIN  68  64  88 CALM      30.26S
ABINGDON*      CLOUDY    74  62  66 W9        30.25S
BRISTOL        CLOUDY    73  62  68 SW8       30.24S
SEVIERVILLE*   CLOUDY    68  64  88 VRB3      30.22F
KNOXVILLE      PTSUNNY   71  65  81 E3        30.20F
OAK RIDGE      MOSUNNY   76  64  66 VRB5      30.21F
CROSSVILLE     MOSUNNY   79  63  57 VRB7      30.20F
NASHVILLE      PTSUNNY   84  66  54 SW6       30.10F
$$

...KEY TO REMARKS...
VSB - VISIBILITY IN MILES
WCI - WIND CHILL INDEX
HX  - HEAT INDEX

$$




USA.gov is the U.S. government's official web portal to all federal, state and local government web resources and services.